QPF
0.00 0.00 0.00 0.00 0.00 0.00 0.00 0.00 0.00 0.00 0.00 0.00 0.00 0.00 0.00 0.00 0.00 0.00 0.00 0.00 0.00 0.00 0.00 0.00 0.00 0.00 0.00 0.01 0.00 0.00 0.00 0.00 0.00 0.00 0.01 0.01 0.02 0.02 0.02 0.02 0.02 0.03 0.03 0.03
0.00 0.00 0.00 0.00 0.00 0.00 0.00 0.00 0.00 0.00 0.00 0.00 0.00 0.00 0.00 0.00 0.00 0.00 0.00 0.00 0.00 0.00 0.00 0.00 0.00 0.00 0.00 0.00 0.00 0.00 0.00 0.00 0.00 0.00 0.00 0.01 0.01 0.02 0.02 0.02 0.03 0.03 0.03 0.04
0.00 0.00 0.00 0.00 0.00 0.00 0.00 0.00 0.00 0.00 0.00 0.00 0.00 0.00 0.00 0.00 0.00 0.00 0.00 0.00 0.00 0.00 0.00 0.00 0.00 0.00 0.00 0.00 0.00 0.00 0.00 0.00 0.01 0.01 0.00 0.00 0.00 0.00 0.01 0.02 0.02 0.02 0.02 0.03
0.00 0.00 0.00 0.00 0.00 0.00 0.00 0.00 0.00 0.00 0.00 0.00 0.00 0.00 0.00 0.00 0.00 0.00 0.00 0.00 0.00 0.00 0.00 0.00 0.00 0.00 0.00 0.00 0.00 0.00 0.00 0.00 0.00 0.01 0.01 0.01 0.00 0.00 0.00 0.01 0.01 0.02 0.02 0.03
0.00 0.00 0.00 0.00 0.00 0.00 0.00 0.00 0.00 0.00 0.00 0.00 0.00 0.00 0.00 0.00 0.00 0.00 0.00 0.00 0.00 0.00 0.00 0.00 0.00 0.00 0.00 0.00 0.00 0.00 0.00 0.00 0.00 0.00 0.00 0.01 0.01 0.00 0.00 0.00 0.00 0.01 0.02 0.02
0.00 0.00 0.00 0.00 0.00 0.00 0.00 0.00 0.00 0.00 0.00 0.00 0.00 0.00 0.00 0.00 0.00 0.00 0.00 0.00 0.00 0.00 0.00 0.00 0.00 0.00 0.00 0.00 0.00 0.00 0.00 0.00 0.00 0.00 0.00 0.00 0.01 0.01 0.00 0.00 0.01 0.01 0.00 0.01
0.00 0.00 0.00 0.00 0.00 0.00 0.00 0.00 0.00 0.00 0.00 0.00 0.00 0.00 0.00 0.00 0.00 0.00 0.00 0.00 0.00 0.00 0.00 0.00 0.00 0.00 0.00 0.00 0.00 0.00 0.00 0.00 0.00 0.00 0.00 0.00 0.00 0.00 0.01 0.00 0.00 0.00 0.00 0.00
0.00 0.00 0.00 0.00 0.00 0.00 0.00 0.00 0.00 0.00 0.00 0.00 0.00 0.00 0.00 0.00 0.00 0.00 0.00 0.00 0.00 0.00 0.00 0.00 0.00 0.00 0.00 0.00 0.00 0.00 0.00 0.00 0.00 0.00 0.00 0.00 0.00 0.00 0.00 0.00 0.00 0.00 0.00 0.00
0.00 0.00 0.00 0.00 0.00 0.00 0.00 0.00 0.00 0.00 0.00 0.00 0.00 0.00 0.00 0.00 0.00 0.00 0.00 0.00 0.00 0.00 0.00 0.00 0.00 0.00 0.00 0.00 0.00 0.00 0.00 0.00 0.00 0.00 0.00 0.00 0.00 0.00 0.00 0.00 0.00 0.00 0.00 0.00
0.00 0.00 0.00 0.00 0.00 0.00 0.00 0.00 0.00 0.00 0.00 0.00 0.00 0.00 0.00 0.00 0.00 0.00 0.00 0.00 0.00 0.00 0.00 0.00 0.00 0.00 0.00 0.00 0.00 0.00 0.00 0.00 0.00 0.00 0.00 0.00 0.00 0.00 0.00 0.00 0.00 0.00 0.00 0.00
0.00 0.00 0.00 0.00 0.00 0.00 0.00 0.00 0.00 0.00 0.00 0.00 0.00 0.00 0.00 0.00 0.00 0.00 0.00 0.00 0.00 0.00 0.00 0.00 0.00 0.00 0.00 0.00 0.00 0.00 0.00 0.00 0.00 0.00 0.00 0.00 0.00 0.00 0.00 0.00 0.00 0.00 0.00 0.00
0.00 0.00 0.00 0.00 0.00 0.00 0.00 0.00 0.00 0.00 0.00 0.00 0.00 0.00 0.00 0.00 0.00 0.00 0.00 0.00 0.00 0.00 0.00 0.00 0.00 0.00 0.00 0.00 0.00 0.00 0.00 0.00 0.00 0.00 0.00 0.00 0.00 0.00 0.00 0.00 0.00 0.00 0.00 0.00
0.00 0.00 0.00 0.00 0.00 0.00 0.00 0.00 0.00 0.00 0.00 0.00 0.00 0.00 0.00 0.00 0.00 0.00 0.00 0.00 0.00 0.00 0.00 0.00 0.00 0.00 0.00 0.00 0.00 0.00 0.00 0.00 0.00 0.00 0.00 0.00 0.00 0.00 0.00 0.00 0.00 0.00 0.00 0.00
0.00 0.00 0.00 0.00 0.00 0.00 0.00 0.00 0.00 0.00 0.00 0.00 0.00 0.00 0.00 0.00 0.00 0.00 0.00 0.00 0.00 0.00 0.00 0.00 0.00 0.00 0.00 0.00 0.00 0.00 0.00 0.00 0.00 0.00 0.00 0.00 0.00 0.00 0.00 0.00 0.00 0.00 0.00 0.00
0.00 0.00 0.00 0.00 0.00 0.00 0.00 0.00 0.00 0.00 0.00 0.00 0.00 0.00 0.00 0.00 0.00 0.00 0.00 0.00 0.00 0.00 0.00 0.00 0.00 0.00 0.00 0.00 0.00 0.00 0.00 0.00 0.00 0.00 0.00 0.00 0.00 0.00 0.00 0.00 0.00 0.00 0.00 0.00
0.00 0.00 0.00 0.00 0.00 0.00 0.00 0.00 0.00 0.00 0.00 0.00 0.00 0.00 0.00 0.00 0.00 0.00 0.00 0.00 0.00 0.00 0.00 0.00 0.00 0.00 0.00 0.00 0.00 0.00 0.00 0.00 0.00 0.00 0.00 0.00 0.00 0.00 0.00 0.00 0.00 0.00 0.00 0.00
0.00 0.00 0.00 0.00 0.00 0.00 0.00 0.00 0.00 0.00 0.00 0.00 0.00 0.00 0.00 0.00 0.00 0.00 0.00 0.00 0.00 0.00 0.00 0.00 0.00 0.00 0.00 0.00 0.00 0.00 0.00 0.00 0.00 0.00 0.00 0.00 0.00 0.00 0.00 0.00 0.00 0.00 0.00 0.00
0.00 0.00 0.00 0.00 0.00 0.00 0.00 0.00 0.00 0.00 0.00 0.00 0.00 0.00 0.00 0.00 0.00 0.00 0.00 0.00 0.00 0.00 0.00 0.00 0.00 0.00 0.00 0.00 0.00 0.00 0.00 0.00 0.00 0.00 0.00 0.00 0.00 0.00 0.00 0.00 0.00 0.00 0.00 0.00
0.00 0.00 0.00 0.00 0.00 0.00 0.00 0.00 0.00 0.00 0.00 0.00 0.00 0.00 0.00 0.00 0.00 0.00 0.00 0.00 0.00 0.00 0.00 0.00 0.00 0.00 0.00 0.00 0.00 0.00 0.00 0.00 0.00 0.00 0.00 0.00 0.00 0.00 0.00 0.00 0.00 0.00 0.00 0.00
0.00 0.00 0.00 0.00 0.00 0.00 0.00 0.00 0.00 0.00 0.00 0.00 0.00 0.00 0.00 0.00 0.00 0.00 0.00 0.00 0.00 0.00 0.00 0.00 0.00 0.00 0.00 0.00 0.00 0.00 0.00 0.00 0.00 0.00 0.00 0.00 0.00 0.00 0.00 0.00 0.00 0.00 0.00 0.00
0.00 0.00 0.00 0.00 0.00 0.00 0.00 0.00 0.00 0.00 0.00 0.00 0.00 0.00 0.00 0.00 0.00 0.00 0.00 0.00 0.00 0.00 0.00 0.00 0.00 0.00 0.00 0.00 0.00 0.00 0.00 0.00 0.00 0.00 0.00 0.00 0.00 0.00 0.00 0.00 0.00 0.00 0.00 0.01
0.00 0.00 0.00 0.00 0.00 0.00 0.00 0.00 0.00 0.00 0.00 0.00 0.00 0.00 0.00 0.00 0.00 0.00 0.00 0.00 0.00 0.00 0.00 0.00 0.00 0.00 0.00 0.00 0.00 0.00 0.00 0.00 0.00 0.00 0.00 0.00 0.00 0.00 0.00 0.00 0.00 0.00 0.01 0.01
0.00 0.00 0.00 0.00 0.00 0.00 0.00 0.00 0.00 0.00 0.00 0.00 0.00 0.00 0.00 0.00 0.00 0.00 0.00 0.00 0.00 0.00 0.00 0.00 0.00 0.00 0.00 0.00 0.00 0.00 0.00 0.00 0.00 0.00 0.00 0.00 0.00 0.00 0.00 0.00 0.01 0.01 0.01 0.01
0.00 0.00 0.00 0.00 0.00 0.00 0.00 0.00 0.00 0.00 0.00 0.00 0.00 0.00 0.00 0.00 0.00 0.00 0.00 0.00 0.00 0.00 0.00 0.00 0.00 0.00 0.00 0.00 0.00 0.00 0.00 0.00 0.00 0.00 0.00 0.00 0.00 0.00 0.00 0.00 0.01 0.01 0.01 0.01
0.00 0.00 0.00 0.00 0.00 0.00 0.00 0.00 0.00 0.00 0.00 0.00 0.00 0.00 0.00 0.00 0.00 0.00 0.00 0.00 0.00 0.00 0.00 0.00 0.00 0.00 0.00 0.00 0.00 0.00 0.00 0.00 0.00 0.00 0.00 0.00 0.00 0.00 0.00 0.01 0.01 0.01 0.01 0.01
0.00 0.00 0.00 0.00 0.00 0.00 0.00 0.00 0.00 0.00 0.00 0.00 0.00 0.00 0.00 0.00 0.00 0.00 0.00 0.00 0.00 0.00 0.00 0.00 0.00 0.00 0.00 0.00 0.00 0.00 0.00 0.00 0.00 0.00 0.00 0.00 0.00 0.00 0.00 0.01 0.01 0.01 0.02 0.02
0.00 0.00 0.00 0.00 0.00 0.00 0.00 0.00 0.00 0.00 0.00 0.00 0.00 0.00 0.00 0.00 0.00 0.00 0.00 0.00 0.00 0.00 0.00 0.00 0.00 0.00 0.00 0.00 0.00 0.00 0.00 0.00 0.00 0.00 0.00 0.00 0.00 0.01 0.01 0.01 0.01 0.01 0.02 0.02
MSLP
1012.44 1012.71 1012.97 1013.21 1013.42 1013.56 1013.62 1013.57 1013.41 1013.13 1012.77 1012.36 1011.94 1011.58 1011.31 1011.15 1011.13 1011.23 1011.43 1011.69 1011.96 1012.22 1012.43 1012.60 1012.71 1012.80 1012.87 1012.95 1013.06 1013.19 1013.34 1013.50 1013.64 1013.76 1013.82 1013.82 1013.76 1013.65 1013.50 1013.34 1013.18 1013.02 1012.87 1012.72
1012.40 1012.61 1012.78 1012.89 1012.94 1012.94 1012.87 1012.72 1012.52 1012.25 1011.96 1011.65 1011.36 1011.13 1010.98 1010.92 1010.94 1011.05 1011.21 1011.41 1011.62 1011.81 1011.98 1012.12 1012.24 1012.35 1012.47 1012.61 1012.78 1012.97 1013.17 1013.38 1013.55 1013.69 1013.77 1013.78 1013.74 1013.64 1013.52 1013.37 1013.22 1013.08 1012.94 1012.80
1012.36 1012.50 1012.57 1012.56 1012.48 1012.35 1012.16 1011.94 1011.70 1011.45 1011.22 1011.01 1010.84 1010.73 1010.68 1010.70 1010.76 1010.87 1011.00 1011.15 1011.29 1011.43 1011.55 1011.67 1011.79 1011.93 1012.10 1012.30 1012.53 1012.78 1013.03 1013.27 1013.47 1013.61 1013.69 1013.71 1013.66 1013.57 1013.45 1013.31 1013.17 1013.03 1012.90 1012.77
1012.27 1012.34 1012.31 1012.19 1012.00 1011.76 1011.49 1011.21 1010.95 1010.72 1010.54 1010.42 1010.35 1010.34 1010.38 1010.46 1010.56 1010.67 1010.78 1010.88 1010.98 1011.07 1011.16 1011.26 1011.40 1011.57 1011.78 1012.04 1012.32 1012.62 1012.91 1013.17 1013.38 1013.52 1013.59 1013.60 1013.54 1013.44 1013.32 1013.18 1013.04 1012.91 1012.79 1012.67
1012.07 1012.06 1011.93 1011.72 1011.44 1011.12 1010.79 1010.48 1010.22 1010.02 1009.89 1009.84 1009.86 1009.94 1010.05 1010.18 1010.31 1010.43 1010.54 1010.61 1010.68 1010.74 1010.81 1010.92 1011.07 1011.27 1011.52 1011.81 1012.14 1012.47 1012.78 1013.05 1013.26 1013.40 1013.47 1013.46 1013.39 1013.28 1013.15 1013.01 1012.88 1012.76 1012.64 1012.53
1011.70 1011.59 1011.39 1011.10 1010.77 1010.41 1010.05 1009.74 1009.50 1009.33 1009.26 1009.27 1009.36 1009.51 1009.68 1009.87 1010.03 1010.17 1010.28 1010.35 1010.40 1010.45 1010.53 1010.63 1010.79 1011.01 1011.29 1011.61 1011.96 1012.30 1012.63 1012.90 1013.11 1013.24 1013.29 1013.27 1013.20 1013.08 1012.95 1012.82 1012.69 1012.58 1012.48 1012.38
1011.12 1010.92 1010.65 1010.32 1009.97 1009.60 1009.27 1008.98 1008.78 1008.66 1008.65 1008.73 1008.88 1009.08 1009.31 1009.54 1009.74 1009.90 1010.03 1010.11 1010.17 1010.22 1010.30 1010.41 1010.57 1010.80 1011.08 1011.40 1011.75 1012.09 1012.41 1012.68 1012.88 1013.00 1013.05 1013.02 1012.94 1012.83 1012.70 1012.58 1012.46 1012.36 1012.27 1012.19
1010.32 1010.05 1009.75 1009.42 1009.08 1008.76 1008.47 1008.25 1008.11 1008.06 1008.11 1008.25 1008.46 1008.71 1008.99 1009.25 1009.49 1009.68 1009.83 1009.93 1010.00 1010.06 1010.14 1010.25 1010.40 1010.61 1010.87 1011.17 1011.50 1011.82 1012.11 1012.36 1012.55 1012.66 1012.69 1012.67 1012.59 1012.48 1012.36 1012.24 1012.13 1012.05 1011.98 1011.92
1009.36 1009.05 1008.75 1008.45 1008.17 1007.93 1007.73 1007.60 1007.55 1007.58 1007.70 1007.89 1008.15 1008.45 1008.76 1009.05 1009.32 1009.54 1009.71 1009.83 1009.92 1009.99 1010.06 1010.15 1010.28 1010.45 1010.67 1010.92 1011.20 1011.47 1011.73 1011.94 1012.10 1012.19 1012.22 1012.18 1012.10 1012.00 1011.88 1011.76 1011.66 1011.58 1011.53 1011.49
1008.29 1007.99 1007.73 1007.51 1007.33 1007.19 1007.11 1007.10 1007.15 1007.27 1007.46 1007.71 1008.01 1008.33 1008.67 1008.99 1009.27 1009.52 1009.71 1009.85 1009.94 1010.01 1010.07 1010.14 1010.23 1010.34 1010.50 1010.68 1010.88 1011.09 1011.28 1011.44 1011.55 1011.62 1011.62 1011.58 1011.49 1011.37 1011.24 1011.12 1011.01 1010.93 1010.89 1010.87
1007.19 1006.94 1006.76 1006.64 1006.59 1006.59 1006.65 1006.77 1006.93 1007.14 1007.40 1007.70 1008.03 1008.37 1008.72 1009.05 1009.36 1009.62 1009.83 1009.98 1010.09 1010.16 1010.20 1010.23 1010.27 1010.32 1010.39 1010.48 1010.60 1010.71 1010.83 1010.92 1010.98 1011.00 1010.97 1010.89 1010.78 1010.64 1010.49 1010.34 1010.22 1010.12 1010.07 1010.06
1006.11 1005.94 1005.87 1005.89 1005.98 1006.14 1006.34 1006.59 1006.86 1007.16 1007.48 1007.83 1008.18 1008.54 1008.90 1009.24 1009.55 1009.83 1010.05 1010.23 1010.35 1010.42 1010.45 1010.45 1010.44 1010.42 1010.41 1010.41 1010.42 1010.44 1010.46 1010.48 1010.47 1010.43 1010.35 1010.23 1010.08 1009.90 1009.71 1009.53 1009.37 1009.24 1009.16 1009.14
1005.06 1005.00 1005.05 1005.21 1005.46 1005.77 1006.12 1006.49 1006.88 1007.26 1007.64 1008.02 1008.40 1008.77 1009.14 1009.49 1009.81 1010.11 1010.36 1010.56 1010.71 1010.79 1010.82 1010.80 1010.75 1010.68 1010.59 1010.51 1010.42 1010.35 1010.28 1010.21 1010.12 1010.02 1009.88 1009.71 1009.52 1009.29 1009.06 1008.83 1008.62 1008.44 1008.33 1008.27
1004.07 1004.11 1004.29 1004.59 1004.99 1005.44 1005.92 1006.41 1006.89 1007.35 1007.79 1008.21 1008.61 1009.00 1009.38 1009.74 1010.09 1010.42 1010.71 1010.95 1011.13 1011.25 1011.30 1011.28 1011.22 1011.11 1010.97 1010.81 1010.65 1010.49 1010.34 1010.19 1010.03 1009.86 1009.67 1009.46 1009.22 1008.95 1008.67 1008.39 1008.13 1007.90 1007.73 1007.62
1003.14 1003.28 1003.58 1004.00 1004.52 1005.09 1005.69 1006.28 1006.85 1007.38 1007.87 1008.33 1008.76 1009.17 1009.57 1009.97 1010.35 1010.72 1011.07 1011.36 1011.60 1011.77 1011.86 1011.87 1011.81 1011.69 1011.52 1011.32 1011.11 1010.88 1010.67 1010.45 1010.24 1010.02 1009.79 1009.54 1009.26 1008.96 1008.65 1008.33 1008.02 1007.75 1007.52 1007.35
1002.33 1002.54 1002.92 1003.43 1004.05 1004.72 1005.41 1006.08 1006.72 1007.32 1007.86 1008.36 1008.82 1009.27 1009.71 1010.14 1010.58 1011.00 1011.40 1011.77 1012.07 1012.30 1012.45 1012.51 1012.48 1012.38 1012.21 1011.99 1011.74 1011.49 1011.23 1010.97 1010.72 1010.47 1010.22 1009.95 1009.66 1009.36 1009.03 1008.69 1008.36 1008.04 1007.77 1007.53
1001.70 1001.95 1002.38 1002.95 1003.62 1004.36 1005.11 1005.85 1006.55 1007.20 1007.79 1008.33 1008.84 1009.32 1009.80 1010.28 1010.76 1011.24 1011.71 1012.14 1012.51 1012.82 1013.03 1013.15 1013.16 1013.09 1012.94 1012.73 1012.48 1012.20 1011.93 1011.66 1011.39 1011.14 1010.89 1010.63 1010.35 1010.06 1009.75 1009.42 1009.08 1008.74 1008.43 1008.14
1001.33 1001.59 1002.04 1002.63 1003.33 1004.10 1004.89 1005.67 1006.41 1007.10 1007.73 1008.31 1008.85 1009.37 1009.89 1010.40 1010.93 1011.46 1011.98 1012.47 1012.90 1013.27 1013.54 1013.71 1013.78 1013.74 1013.62 1013.43 1013.19 1012.92 1012.65 1012.38 1012.13 1011.89 1011.65 1011.43 1011.19 1010.94 1010.66 1010.36 1010.04 1009.71 1009.37 1009.05
1001.31 1001.55 1001.98 1002.56 1003.25 1004.02 1004.82 1005.62 1006.38 1007.09 1007.75 1008.36 1008.92 1009.47 1010.01 1010.56 1011.11 1011.66 1012.21 1012.73 1013.21 1013.61 1013.93 1014.14 1014.24 1014.24 1014.15 1013.98 1013.76 1013.51 1013.25 1013.00 1012.77 1012.56 1012.37 1012.18 1012.00 1011.80 1011.57 1011.32 1011.04 1010.73 1010.39 1010.05
1001.67 1001.87 1002.26 1002.80 1003.46 1004.20 1004.99 1005.77 1006.52 1007.24 1007.90 1008.52 1009.10 1009.66 1010.20 1010.75 1011.30 1011.86 1012.41 1012.93 1013.42 1013.83 1014.16 1014.40 1014.52 1014.55 1014.48 1014.33 1014.13 1013.90 1013.66 1013.43 1013.22 1013.05 1012.89 1012.75 1012.62 1012.48 1012.31 1012.11 1011.88 1011.60 1011.28 1010.93
1002.38 1002.53 1002.86 1003.34 1003.95 1004.64 1005.38 1006.12 1006.86 1007.55 1008.20 1008.81 1009.38 1009.92 1010.45 1010.98 1011.51 1012.04 1012.56 1013.06 1013.52 1013.92 1014.25 1014.47 1014.60 1014.64 1014.58 1014.45 1014.26 1014.05 1013.83 1013.62 1013.44 1013.29 1013.17 1013.07 1012.98 1012.89 1012.77 1012.62 1012.43 1012.18 1011.89 1011.55
1003.34 1003.44 1003.71 1004.12 1004.66 1005.28 1005.95 1006.64 1007.33 1007.98 1008.60 1009.18 1009.72 1010.23 1010.73 1011.22 1011.70 1012.19 1012.66 1013.12 1013.53 1013.90 1014.19 1014.40 1014.52 1014.55 1014.49 1014.37 1014.20 1014.00 1013.80 1013.61 1013.44 1013.31 1013.22 1013.14 1013.08 1013.02 1012.94 1012.82 1012.65 1012.43 1012.16 1011.83
1004.41 1004.47 1004.67 1005.01 1005.47 1006.01 1006.61 1007.23 1007.85 1008.45 1009.02 1009.56 1010.06 1010.53 1010.98 1011.42 1011.86 1012.28 1012.70 1013.10 1013.46 1013.77 1014.03 1014.21 1014.31 1014.33 1014.28 1014.17 1014.01 1013.83 1013.64 1013.47 1013.32 1013.20 1013.12 1013.06 1013.01 1012.96 1012.88 1012.78 1012.62 1012.41 1012.14 1011.82
1005.43 1005.45 1005.60 1005.87 1006.25 1006.71 1007.23 1007.77 1008.33 1008.87 1009.39 1009.88 1010.34 1010.76 1011.17 1011.56 1011.95 1012.32 1012.68 1013.01 1013.32 1013.59 1013.81 1013.96 1014.05 1014.07 1014.02 1013.92 1013.79 1013.63 1013.46 1013.31 1013.18 1013.07 1012.99 1012.93 1012.88 1012.82 1012.74 1012.63 1012.47 1012.25 1011.97 1011.63
1006.26 1006.26 1006.36 1006.58 1006.89 1007.27 1007.71 1008.18 1008.67 1009.16 1009.63 1010.08 1010.50 1010.89 1011.27 1011.62 1011.96 1012.28 1012.60 1012.89 1013.15 1013.38 1013.57 1013.70 1013.79 1013.81 1013.78 1013.71 1013.61 1013.48 1013.35 1013.22 1013.11 1013.02 1012.95 1012.88 1012.82 1012.75 1012.65 1012.51 1012.33 1012.08 1011.78 1011.42
1006.80 1006.80 1006.88 1007.05 1007.30 1007.62 1008.00 1008.41 1008.85 1009.29 1009.72 1010.14 1010.54 1010.91 1011.26 1011.59 1011.90 1012.20 1012.48 1012.74 1012.97 1013.18 1013.35 1013.48 1013.57 1013.61 1013.61 1013.58 1013.52 1013.44 1013.35 1013.27 1013.19 1013.12 1013.06 1012.99 1012.92 1012.83 1012.71 1012.54 1012.32 1012.04 1011.70 1011.31
1007.05 1007.05 1007.12 1007.26 1007.47 1007.75 1008.08 1008.45 1008.85 1009.26 1009.68 1010.08 1010.47 1010.83 1011.18 1011.50 1011.80 1012.08 1012.34 1012.58 1012.80 1013.00 1013.16 1013.30 1013.40 1013.47 1013.51 1013.52 1013.51 1013.49 1013.46 1013.43 1013.39 1013.36 1013.31 1013.26 1013.19 1013.08 1012.93 1012.73 1012.47 1012.15 1011.77 1011.33
Thickness
5757 5759 5756 5752 5750 5748 5741 5740 5735 5742 5746 5755 5761 5760 5760 5759 5757 5752 5748 5745 5740 5734 5730 5726 5722 5718 5713 5708 5704 5699 5693 5687 5682 5679 5675 5671 5668 5665 5662 5659 5657 5655 5653 5652
5750 5758 5755 5749 5752 5751 5748 5748 5746 5747 5749 5767 5769 5766 5762 5761 5757 5752 5748 5746 5743 5738 5733 5728 5725 5720 5715 5710 5706 5701 5695 5689 5685 5681 5676 5672 5669 5666 5662 5660 5657 5655 5653 5651
5740 5754 5750 5740 5757 5756 5754 5758 5753 5745 5755 5767 5764 5762 5761 5760 5758 5754 5751 5748 5744 5740 5736 5731 5728 5723 5716 5712 5708 5702 5697 5692 5687 5682 5678 5674 5671 5667 5663 5660 5658 5655 5653 5651
5740 5742 5723 5754 5781 5776 5765 5764 5767 5764 5766 5767 5765 5766 5766 5764 5759 5755 5753 5749 5745 5741 5738 5734 5731 5726 5720 5715 5709 5703 5698 5693 5689 5684 5679 5675 5672 5668 5665 5662 5659 5656 5654 5652
5737 5732 5745 5760 5773 5771 5760 5759 5772 5768 5767 5768 5770 5765 5762 5765 5762 5758 5755 5750 5746 5743 5739 5735 5731 5727 5721 5716 5710 5704 5698 5694 5690 5686 5681 5677 5673 5669 5667 5664 5661 5659 5657 5654
5735 5725 5728 5758 5777 5782 5766 5750 5774 5772 5767 5765 5763 5747 5748 5760 5760 5757 5753 5749 5746 5742 5739 5734 5730 5726 5719 5714 5710 5704 5700 5696 5693 5688 5683 5678 5674 5672 5669 5666 5663 5661 5659 5657
5725 5727 5746 5767 5776 5772 5739 5749 5773 5773 5768 5765 5758 5753 5756 5759 5756 5753 5750 5746 5743 5739 5734 5731 5728 5723 5716 5713 5708 5705 5701 5697 5693 5689 5685 5681 5677 5674 5671 5668 5665 5662 5660 5659
5731 5723 5736 5768 5767 5757 5759 5773 5774 5771 5769 5764 5761 5759 5757 5754 5751 5748 5744 5742 5739 5734 5730 5728 5726 5720 5714 5710 5708 5705 5701 5696 5692 5689 5686 5683 5678 5675 5672 5669 5665 5663 5661 5660
5750 5747 5762 5772 5770 5770 5773 5770 5769 5767 5765 5763 5757 5754 5752 5749 5746 5743 5740 5737 5734 5730 5726 5724 5722 5718 5711 5709 5708 5704 5699 5695 5692 5690 5687 5684 5679 5676 5673 5670 5666 5664 5661 5659
5755 5757 5762 5766 5768 5768 5768 5766 5765 5764 5761 5759 5753 5751 5748 5744 5741 5738 5736 5733 5729 5725 5720 5718 5718 5715 5711 5708 5706 5702 5697 5695 5693 5690 5687 5685 5681 5678 5673 5669 5666 5663 5661 5658
5750 5758 5758 5760 5763 5763 5761 5761 5760 5758 5757 5753 5750 5746 5743 5739 5736 5733 5730 5727 5724 5719 5715 5713 5712 5710 5707 5704 5702 5698 5695 5693 5692 5689 5687 5683 5681 5677 5674 5672 5668 5663 5661 5658
5745 5760 5757 5757 5762 5761 5756 5753 5753 5750 5747 5747 5744 5740 5737 5733 5730 5727 5723 5721 5717 5713 5709 5708 5706 5703 5701 5699 5696 5693 5691 5690 5687 5685 5683 5681 5678 5676 5676 5673 5670 5667 5664 5660
5763 5765 5764 5764 5760 5756 5751 5749 5747 5744 5740 5737 5736 5733 5729 5724 5721 5718 5715 5712 5709 5705 5702 5699 5697 5694 5693 5691 5689 5687 5685 5684 5682 5680 5679 5676 5675 5672 5670 5670 5668 5666 5663 5660
5762 5757 5747 5746 5745 5745 5744 5742 5739 5735 5732 5729 5726 5723 5719 5715 5712 5708 5704 5703 5700 5697 5693 5690 5687 5684 5684 5683 5681 5680 5679 5677 5675 5674 5673 5672 5671 5670 5668 5666 5664 5663 5662 5659
5750 5749 5745 5743 5739 5736 5734 5731 5726 5722 5720 5716 5714 5711 5708 5704 5699 5696 5694 5693 5690 5686 5682 5679 5675 5673 5673 5673 5672 5671 5670 5668 5667 5667 5667 5667 5666 5665 5664 5663 5662 5661 5661 5659
5739 5737 5735 5730 5726 5724 5722 5719 5715 5712 5709 5705 5702 5699 5696 5693 5688 5685 5683 5681 5676 5671 5668 5665 5662 5661 5662 5661 5661 5660 5660 5660 5659 5659 5659 5658 5657 5657 5656 5656 5655 5654 5653 5653
5725 5721 5719 5716 5715 5713 5712 5710 5707 5702 5698 5694 5690 5688 5684 5680 5676 5672 5669 5666 5662 5658 5654 5651 5649 5650 5650 5649 5648 5648 5649 5649 5650 5649 5648 5647 5647 5647 5647 5647 5646 5645 5645 5646
5724 5720 5717 5713 5708 5704 5701 5699 5696 5691 5686 5682 5679 5675 5672 5667 5662 5659 5656 5653 5648 5644 5640 5638 5638 5638 5638 5636 5635 5636 5637 5637 5637 5636 5636 5635 5635 5635 5635 5635 5635 5635 5635 5636
5712 5709 5706 5703 5700 5695 5690 5685 5681 5677 5673 5669 5665 5661 5657 5654 5650 5647 5643 5638 5633 5628 5626 5625 5625 5625 5624 5623 5622 5623 5624 5624 5623 5623 5623 5622 5622 5621 5621 5620 5620 5620 5620 5620
5693 5692 5690 5687 5684 5679 5674 5670 5665 5660 5657 5654 5650 5646 5642 5639 5636 5632 5628 5622 5617 5614 5613 5612 5611 5610 5609 5608 5608 5609 5609 5609 5608 5607 5607 5606 5605 5605 5604 5604 5603 5603 5603 5602
5669 5668 5666 5664 5661 5659 5656 5652 5648 5644 5641 5639 5635 5631 5627 5624 5621 5617 5613 5607 5603 5600 5600 5598 5597 5594 5593 5592 5594 5595 5594 5593 5592 5591 5590 5589 5588 5587 5586 5586 5585 5584 5583 5582
5645 5644 5642 5641 5639 5636 5635 5634 5630 5627 5624 5622 5619 5616 5612 5609 5606 5602 5598 5594 5590 5587 5586 5584 5582 5580 5579 5580 5580 5580 5580 5578 5577 5575 5573 5572 5570 5569 5567 5566 5565 5563 5562 5561
5623 5622 5621 5619 5618 5618 5617 5615 5613 5610 5607 5605 5603 5601 5598 5595 5592 5589 5584 5581 5578 5574 5572 5570 5569 5568 5567 5567 5567 5566 5565 5563 5561 5559 5556 5554 5553 5551 5549 5547 5545 5543 5541 5539
5603 5603 5602 5602 5601 5600 5598 5597 5595 5593 5591 5589 5587 5585 5583 5580 5577 5575 5572 5567 5565 5562 5560 5558 5557 5556 5555 5554 5553 5552 5550 5548 5545 5543 5540 5538 5536 5533 5531 5528 5526 5523 5521 5519
5586 5585 5584 5584 5583 5582 5582 5581 5579 5577 5575 5573 5572 5570 5569 5567 5564 5562 5559 5556 5553 5550 5549 5547 5546 5545 5543 5541 5540 5538 5535 5533 5530 5528 5525 5522 5519 5516 5514 5510 5507 5505 5502 5499
5567 5567 5567 5567 5567 5566 5566 5566 5564 5562 5561 5559 5557 5556 5555 5553 5551 5548 5546 5544 5542 5540 5538 5536 5534 5533 5531 5528 5526 5523 5521 5519 5516 5513 5510 5507 5503 5500 5497 5493 5490 5486 5483 5480
5551 5550 5550 5551 5551 5552 5552 5551 5550 5549 5548 5546 5545 5543 5542 5540 5538 5536 5534 5532 5530 5529 5527 5525 5523 5520 5518 5515 5513 5510 5508 5505 5501 5498 5494 5491 5487 5483 5479 5476 5471 5468 5464 5461